Regional Weather Roundup
Issued by NWS Newport/Morehead, NC

Current Version | Previous Version | Text Only | Print | Product List | Glossary On
Versions: 1 2 3 4 5 6 7 8 9 10 11 12 13 14 15 16 17 18 19 20 21 22 23 24 25 26 27 28 29 30 31 32 33 34 35 36 37 38 39 40 41 42 43 44 45 46 47 48 49 50
227
ASUS42 KMHX 211814
RWRMHX
WEATHER ROUNDUP FOR EASTERN NORTH CAROLINA
NATIONAL WEATHER SERVICE NEWPORT/MOREHEAD CITY NC
200 PM EDT MON AUG 21 2017

NOTE: "FAIR" INDICATES FEW OR NO CLOUDS BELOW 12,000 FEET
WITH NO SIGNIFICANT WEATHER AND/OR OBSTRUCTIONS TO VISIBILITY

NCZ015>017-031-032-045>047-102-103-211900-
NORTH COAST

CITY           SKY/WX    TMP DP  RH WIND       PRES   REMARKS
EDENTON        MOSUNNY   89  76  64 CALM      30.21F
ELIZABETH CITY SUNNY     87  74  64 E9        30.21F
KITTY HAWK     CLEAR     84  75  73 CALM      30.21F
MANTEO         MOSUNNY   85  74  69 E7        30.22F

$$

NCZ045>047-081-094-103-104-211900-
CENTRAL COAST

CITY           SKY/WX    TMP DP  RH WIND       PRES   REMARKS
FRISCO         MOSUNNY   89  79  72 SE6       30.21F HX 104

$$

NCZ095-097-098-100-101-211900-
SOUTHERN COAST

CITY           SKY/WX    TMP DP  RH WIND       PRES   REMARKS
BEAUFORT       CLOUDY    82  77  84 S6        30.20F
CEDAR ISLAND   NOT AVBL
JACKSONVILLE   CLOUDY    87  77  72 SE7       30.18F
PINEY ISLAND   MOCLDY   N/A N/A N/A E7        30.20F
WILMINGTON     CLOUDY    84  74  71 SE8       30.19F


$$

NCZ011>013-027>030-043-044-078>080-089-090>093-098-211900-
COASTAL PLAIN

CITY           SKY/WX    TMP DP  RH WIND       PRES   REMARKS
AHOSKIE          N/A     86  74  65 SE5       30.21F
CLINTON        MOSUNNY   90  73  58 SE5       30.20S
ELIZABETHTOWN  NOT AVBL
GOLDSBORO      MOSUNNY   90  74  58 E7        30.19F
GREENVILLE     SUNNY     90  72  55 SE6       30.21F
HAVELOCK       MOSUNNY   89  75  63 E12       30.20F
KENANSVILLE    PTSUNNY   88  72  58 E5        30.20F
KINSTON        MOSUNNY   90  70  51 E9        30.20F
NEW BERN       CLOUDY    87  76  69 E9        30.20F
RICHLANDS      MOSUNNY   89  74  60 SE5       30.19F
ROCKY MOUNT    SUNNY     88  70  55 VRB3      30.20F
WASHINGTON     SUNNY     88  74  62 SE7       30.20F
WHITEVILLE     MOSUNNY   89  73  59 E6        30.18S

$$

AMZ130-135-150-152-154-156-158-170-250-252-270-ANZ085-086-088-633-658-670-211900-
MARINE OBSERVATIONS

STATION/POSITION TIME  TEMP    WIND        PRES    WAVE   SWELL
                       AIR SEA DIR/SP/G            HT/PER HT/PER
                 (UTC) (F)     (DEG/KT/KT) (MB)    (FT/S) (FT/S)
CHESAPEAKE LIGHT NOT AVBL
64 E VA BEACH    1750   79 80  120/  6/  8 1024.2    2/ 9   2/ 9
DUCK             1748   83 81  110/  8/  8 1023.1
2 E DUCK         1730      82                N/A     2/ 9
OREGON INLET     1742   82 77   50/  6/  8 1023.3
13E OREGON INLT  1748      81                N/A     2/ 8   2/ 8
HATTERAS CG      1748   85 80  120/  6/  8 1023.0
DIAMOND BUOY     1750   82 85  160/ 10/ 12 1022.5    2/ 7   2/ 7
CAPE LOOKOUT     1800   80     160/  3/  4 1022.1
BEAUFORT LAB     1748   80 81  190/  6/  9 1022.1
30 SE NEW RVR IN 1708   79 83   60/  8/ 12 1023.0
30 SE NEW RVR IN 1743      84                N/A     3/ 8
27 SE WRIGHTSVLE NOT AVBL
5 SE WRIGHTSVLE  1708   82 84   90/ 10/ 14 1022.6
225 S CAPE HAT   1750   83 85  100/  6/  6 1022.5    3/ 9   3/ 9
41 SE CHARLESTON 1800   82 85  100/  6/  8 1021.1

$$




USA.gov is the U.S. government's official web portal to all federal, state and local government web resources and services.